Accueil
METAR-TAF:

METAR-TAF

Aéroports :

Greenville, Maine, États-Unis

latitude: 45-28N, longitude: 069-35W, altitude: 427 m

Observation

Le bulletin a été fait il y a 50 minutes, à 16:56 UTC
Vent 12 kt de nord-ouest avec des rafales jusqu'à 16 kt, variant entre ouest et nord/nord-ouest
Température 17°C
Humidité 77%
Pression 1008 hPa

METAR: KGNR 201656Z AUTO 31012G16KT 260V330 17/13 A2977 RMK AO1 SLP085 T01670133

Heure: 13:46 (17:46 UTC)


TAF: absent

Observations et prévisions météorologiques de plus de 4000 aéroports (messages METAR et TAF).

Les stations disponibles sont représentées par des disques jaunes et rouges sur la carte.

Passer la souris dessus pour voir le nom de la station.

Cliquer dessus pour voir les observations et prévisions météorologiques.

Pour changer de carte: cliquez sur les boutons verts avec une croix noire pour zoomer, sur le bouton vert avec un tiret pour effectuer un zoom arrière, ou sur les flèches vertes pour les cartes adjacentes.


METAR-TAF: